sat.trackr.live / text

‹ back to catalog

STARLINK-3606

NORAD 51807 · 2022-017AR

PAYLOAD ACTIVE UNKNOWN

§ Identity

Operator
Country
US
Launch date
2022-02-25
Launch site
AFWTR
Launch vehicle
Mass (kg)
RCS (m²)

Purposes: comms

External: N2YO · Heavens-Above · Gunter

§ Orbital elements

Epoch: 2026-05-25T00:20:13.862112Z

Period
95.44 min
Inclination
53.2130°
Eccentricity
0.0001318
Mean motion
15.08821319 rev/d
Perigee alt
538.9 km
Apogee alt
540.7 km
Semi-major
6,917.9 km
B*
2.3427e-4
RAAN
356.4868°
Arg perigee
87.9240°
Mean anomaly
272.1903°
Rev number
23,563

§ Raw data

STARLINK-36061 51807U 22017AR  26145.01404933  .00003441  00000+0  23427-3 0  99972 51807  53.2130 356.4868 0001318  87.9240 272.1903 15.08821319235631

JSON: /api/v1/satellites/51807 · /tle

For live sub-satellite position, see the globe view (requires WebGL).

§ Visibility from observer

Set your observer location to see the next 7 days of passes ≥ 10°. The values pass through the URL so the page stays shareable.

No JS? Fill the form by hand. The geolocation button needs JavaScript.